This demonstration page uses our WeatherBlox Daily Observations layout. Learn more.

40.92945, -100.16068

Hourly Observations for May 26, 2016

Temp ( °F °C ) Dew Point ( °F °C ) Humidity (%) Winds ( mph kmh ) Pressure ( in mb ) Visibility ( mi km ) Precip ( " mm )
12:15 am 00:15 Clear 62 16.5 50 10.2 67 67 SE 10 17 29.83 1010 10 16.0934 N/A
12:35 am 00:35 Clear 61 16 50 10.1 68 68 SSE 8 13 29.83 1010 10 16.0934 N/A
12:55 am 00:55 Clear 62 16.4 49 9.5 64 64 S 3 6 29.83 1010 10 16.0934 0 0
1:15 am 01:15 Clear 58 14.5 51 10.4 77 77 Calm 29.83 1010 10 16.0934 N/A
1:35 am 01:35 Clear 56 13.6 51 10.6 82 82 N 10 17 29.83 1010 10 16.0934 N/A
1:55 am 01:55 Clear 56 13.2 51 10.5 84 84 N 7 11 29.85 1011 10 16.0934 N/A
2:15 am 02:15 Clear 55 13 51 10.7 86 86 N 9 15 29.85 1011 10 16.0934 N/A
2:35 am 02:35 Clear 56 13.1 51 10.5 84 84 N 9 15 29.83 1010 10 16.0934 N/A
2:55 am 02:55 Clear 55 12.7 50 10.1 84 84 N 7 11 29.83 1010 10 16.0934 N/A
3:15 am 03:15 Clear 55 12.8 49 9.7 82 82 Calm 29.85 1011 10 16.0934 N/A
3:35 am 03:35 Clear 53 11.7 49 9.7 88 88 SSE 5 7 29.88 1012 10 16.0934 N/A
3:55 am 03:55 Clear 53 11.6 50 9.8 89 89 WSW 3 6 29.88 1012 10 16.0934 N/A
4:15 am 04:15 Clear 53 11.5 49 9.7 89 89 SW 3 6 29.88 1012 10 16.0934 N/A
4:35 am 04:35 Clear 52 11.3 50 10 92 92 WSW 5 7 29.88 1012 10 16.0934 N/A
4:55 am 04:55 Clear 51 10.5 49 9.2 92 92 Calm 29.88 1012 10 16.0934 N/A
5:15 am 05:15 Clear 50 10.1 48 8.9 92 92 N 3 6 29.88 1012 10 16.0934 N/A
5:35 am 05:35 Partly Cloudy 50 10.1 48 9.1 94 94 N 3 6 29.88 1012 10 16.0934 N/A
5:55 am 05:55 Mostly Cloudy 51 10.6 49 9.6 94 94 NNE 5 7 29.91 1013 10 16.0934 N/A
6:15 am 06:15 Cloudy 51 10.5 49 9.5 94 94 Calm 29.91 1013 10 16.0934 N/A
6:35 am 06:35 Cloudy 52 11.1 50 10.1 94 94 NNW 3 6 29.91 1013 10 16.0934 N/A
6:55 am 06:55 Cloudy 54 12 52 11 94 94 NW 5 7 29.91 1013 10 16.0934 0 0
7:15 am 07:15 Cloudy 55 12.5 52 11.2 92 92 NNW 3 6 29.88 1012 10 16.0934 N/A
7:35 am 07:35 Cloudy 56 13.2 53 11.8 91 91 NW 3 6 29.88 1012 10 16.0934 N/A
7:55 am 07:55 Mostly Cloudy 56 13.6 53 11.7 88 88 Calm 29.88 1012 10 16.0934 N/A
8:15 am 08:15 Mostly Cloudy 58 14.5 54 12.3 87 87 NNE 5 7 29.88 1012 10 16.0934 N/A
8:35 am 08:35 Partly Cloudy 60 15.6 54 12.3 81 81 NE 6 9 29.85 1011 10 16.0934 N/A
8:55 am 08:55 Mostly Cloudy 61 16.1 53 11.9 76 76 Calm 29.85 1011 10 16.0934 N/A
9:15 am 09:15 Mostly Cloudy 62 16.7 54 12.2 75 75 SW 3 6 29.85 1011 10 16.0934 N/A
9:35 am 09:35 Partly Cloudy 63 17.3 55 12.9 76 76 ESE 3 6 29.85 1011 10 16.0934 N/A
9:55 am 09:55 Sunny 65 18.5 55 12.9 70 70 ENE 6 9 29.83 1010 10 16.0934 N/A
10:15 am 10:15 Sunny 67 19.3 56 13.6 70 70 NNE 7 11 29.83 1010 10 16.0934 N/A
10:35 am 10:35 Partly Cloudy 67 19.6 56 13.1 66 66 NE 8 13 29.83 1010 10 16.0934 N/A
10:55 am 10:55 Mostly Cloudy 68 20.1 56 13.1 64 64 ENE 10 17 29.83 1010 10 16.0934 N/A
11:15 am 11:15 Cloudy 67 19.3 56 13.1 68 68 NE 5 7 29.83 1010 10 16.0934 N/A
11:35 am 11:35 Cloudy with Thunderstorms 65 18.2 55 12.9 71 71 NNE 8 13 29.88 1012 7 11.26538 N/A
11:55 am 11:55 Cloudy with Light Rain 63 17.3 57 13.9 81 81 NE 12 19 29.85 1011 10 16.0934 0.01 0.254
12:15 pm 12:15 Partly Cloudy 67 19.5 58 14.7 74 74 NNE 12 19 29.83 1010 10 16.0934 N/A
12:35 pm 12:35 Sunny 68 20 58 14.7 72 72 NNE 15 24 29.8 1009 10 16.0934 N/A
12:55 pm 12:55 Sunny 69 20.5 59 14.9 70 70 NE 14 22 29.8 1009 10 16.0934 0 0
1:15 pm 13:15 Sunny 70 20.9 59 15 69 69 NE 10 17 29.77 1008 10 16.0934 N/A
1:35 pm 13:35 Sunny 71 21.6 59 15 66 66 NE 9 15 29.77 1008 10 16.0934 N/A
1:55 pm 13:55 Partly Cloudy 72 22 60 15.7 68 68 NE 10 17 29.74 1007 10 16.0934 N/A
2:15 pm 14:15 Partly Cloudy 71 21.9 59 14.9 65 65 ENE 12 19 29.71 1006 10 16.0934 N/A
2:35 pm 14:35 Sunny 72 22.3 59 14.9 63 63 NE 10 17 29.68 1005 10 16.0934 N/A
2:55 pm 14:55 Sunny 73 23 60 15.3 62 62 ENE 13 20 29.68 1005 10 16.0934 N/A
3:15 pm 15:15 Sunny 74 23.4 58 14.7 58 58 NE 16 26 29.65 1004 10 16.0934 N/A
3:35 pm 15:35 Sunny 74 23.2 57 14.1 57 57 NE 16 26 29.65 1004 10 16.0934 N/A
3:55 pm 15:55 Sunny 74 23.5 57 13.7 54 54 ENE 10 17 29.65 1004 10 16.0934 N/A
4:15 pm 16:15 Sunny 73 22.6 56 13.4 56 56 ENE 16 26 29.62 1003 10 16.0934 N/A
4:35 pm 16:35 Sunny 73 22.6 56 13.4 56 56 ENE 15 24 29.65 1004 10 16.0934 N/A
4:55 pm 16:55 Sunny 73 22.6 56 13.1 55 55 ENE 16 26 29.62 1003 10 16.0934 N/A
5:15 pm 17:15 Sunny 73 22.6 56 13.5 57 57 ENE 14 22 29.62 1003 10 16.0934 N/A
5:35 pm 17:35 Sunny 73 22.5 56 13.5 57 57 ENE 16 26 29.62 1003 10 16.0934 N/A
5:55 pm 17:55 Partly Cloudy 72 22.4 56 13.3 57 57 ENE 16 26 29.62 1003 10 16.0934 N/A
6:15 pm 18:15 Partly Cloudy 74 23.1 58 14.3 58 58 ENE 16 26 29.62 1003 10 16.0934 N/A
6:35 pm 18:35 Mostly Cloudy 72 22.2 58 14.6 62 62 E 16 26 29.62 1003 10 16.0934 N/A
6:55 pm 18:55 Cloudy 71 21.5 58 14.4 64 64 E 12 19 29.62 1003 10 16.0934 N/A
7:15 pm 19:15 Mostly Cloudy 70 21 58 14.4 66 66 ESE 21 33 29.59 1002 10 16.0934 N/A
7:35 pm 19:35 Partly Cloudy 67 19.5 58 14.3 72 72 E 14 22 29.62 1003 10 16.0934 N/A
7:55 pm 19:55 Sunny 66 19 58 14.5 75 75 ENE 7 11 29.65 1004 10 16.0934 N/A
8:15 pm 20:15 Mostly Cloudy 66 18.7 58 14.2 75 75 ENE 9 15 29.65 1004 10 16.0934 N/A
8:35 pm 20:35 Cloudy 66 18.7 57 14 74 74 E 12 19 29.62 1003 10 16.0934 N/A
8:55 pm 20:55 Mostly Cloudy 65 18.5 57 14 75 75 ENE 9 15 29.62 1003 10 16.0934 N/A
9:15 pm 21:15 Cloudy 65 18.5 57 14 75 75 ENE 14 22 29.62 1003 10 16.0934 N/A
9:35 pm 21:35 Mostly Cloudy 65 18.2 57 14.1 77 77 E 16 26 29.62 1003 10 16.0934 N/A
9:55 pm 21:55 Partly Cloudy 64 18 57 14.1 78 78 E 18 30 29.62 1003 10 16.0934 N/A
10:15 pm 22:15 Mostly Cloudy with Nearby Thunderstorms 64 17.8 55 12.9 73 73 E 21 33 29.65 1004 10 16.0934 N/A
10:35 pm 22:35 Cloudy 62 16.7 55 13 79 79 S 12 19 29.74 1007 10 16.0934 N/A
10:55 pm 22:55 Cloudy with Thunderstorms 61 15.9 56 13.6 86 86 SE 8 13 29.74 1007 5 8.0467 0.05 1.27
11:15 pm 23:15 Cloudy with Thunderstorms 60 15.6 57 13.8 89 89 SE 15 24 29.74 1007 5 8.0467 0.07 1.778
11:35 pm 23:35 Cloudy with Heavy Rain 59 15 57 13.7 92 92 SSE 20 31 29.77 1008 5 8.0467 0.17 4.318
11:55 pm 23:55 Cloudy with Rain 57 14.1 55 12.9 93 93 SE 8 13 29.71 1006 7 11.26538 0.29 7.366

Powered by AerisWeather